Time,TemperatureF,DewpointF,PressureIn,WindDirection,WindDirectionDegrees,WindSpeedMPH,WindSpeedGustMPH,Humidity,HourlyPrecipIn,Conditions,Clouds,dailyrainin,SoftwareType,DateUTC
2013-01-19 00:00:00,34.6,31.7,29.77,SW,228,3.0,3.0,89,0.00,,,0.00,Wunderground v.1.15,2013-01-19 06:00:00,
2013-01-19 00:02:00,34.6,31.7,29.77,WSW,248,3.0,4.0,89,0.00,,,0.00,Wunderground v.1.15,2013-01-19 06:02:00,
2013-01-19 00:08:00,34.6,31.7,29.77,SW,228,4.0,18.0,89,0.00,,,0.00,Wunderground v.1.15,2013-01-19 06:08:00,
2013-01-19 00:10:00,34.6,31.7,29.77,SW,222,4.0,4.0,89,0.00,,,0.00,Wunderground v.1.15,2013-01-19 06:10:00,
2013-01-19 00:14:00,34.5,31.6,29.77,SW,229,4.0,4.0,89,0.00,,,0.00,Wunderground v.1.15,2013-01-19 06:14:00,
2013-01-19 00:16:00,34.5,31.6,29.77,WSW,243,3.0,4.0,89,0.00,,,0.00,Wunderground v.1.15,2013-01-19 06:16:00,
2013-01-19 00:18:00,34.4,31.5,29.77,SW,232,3.0,4.0,89,0.00,,,0.00,Wunderground v.1.15,2013-01-19 06:18:00,
2013-01-19 00:20:00,34.4,31.5,29.77,SW,229,4.0,5.0,89,0.00,,,0.00,Wunderground v.1.15,2013-01-19 06:20:00,
2013-01-19 00:24:00,34.4,31.5,29.77,SW,228,4.0,5.0,89,0.00,,,0.00,Wunderground v.1.15,2013-01-19 06:24:00,
2013-01-19 00:26:00,34.4,31.5,29.77,SW,226,4.0,5.0,89,0.00,,,0.00,Wunderground v.1.15,2013-01-19 06:26:00,
2013-01-19 00:30:00,34.4,31.5,29.76,SW,233,4.0,5.0,89,0.00,,,0.00,Wunderground v.1.15,2013-01-19 06:30:00,
2013-01-19 00:34:00,34.5,31.9,29.76,WSW,255,4.0,5.0,90,0.00,,,0.00,Wunderground v.1.15,2013-01-19 06:34:00,
2013-01-19 00:38:00,34.6,31.7,29.76,SW,229,4.0,5.0,89,0.00,,,0.00,Wunderground v.1.15,2013-01-19 06:38:00,
2013-01-19 00:40:00,34.6,31.7,29.76,SW,222,4.0,5.0,89,0.00,,,0.00,Wunderground v.1.15,2013-01-19 06:40:00,
2013-01-19 00:42:00,34.6,31.7,29.76,WSW,241,4.0,5.0,89,0.00,,,0.00,Wunderground v.1.15,2013-01-19 06:42:00,
2013-01-19 00:46:00,34.5,31.6,29.76,SW,226,4.0,5.0,89,0.00,,,0.00,Wunderground v.1.15,2013-01-19 06:46:00,
2013-01-19 00:52:00,34.5,31.9,29.76,SW,235,3.0,5.0,90,0.00,,,0.00,Wunderground v.1.15,2013-01-19 06:52:00,
2013-01-19 00:54:00,34.5,31.9,29.76,WSW,244,4.0,5.0,90,0.00,,,0.00,Wunderground v.1.15,2013-01-19 06:54:00,
2013-01-19 01:02:00,34.5,31.9,29.76,SW,232,4.0,4.0,90,0.00,,,0.00,Wunderground v.1.15,2013-01-19 07:02:00,
2013-01-19 01:04:00,34.5,31.9,29.76,SW,228,4.0,4.0,90,0.00,,,0.00,Wunderground v.1.15,2013-01-19 07:04:00,
2013-01-19 01:08:00,34.5,31.6,29.76,SW,219,3.0,6.0,89,0.00,,,0.00,Wunderground v.1.15,2013-01-19 07:08:00,
2013-01-19 01:10:00,34.4,31.8,29.76,SW,226,3.0,6.0,90,0.00,,,0.00,Wunderground v.1.15,2013-01-19 07:10:00,
2013-01-19 01:14:00,34.4,31.8,29.76,SW,223,3.0,6.0,90,0.00,,,0.00,Wunderground v.1.15,2013-01-19 07:14:00,
2013-01-19 01:20:00,34.3,31.7,29.76,SW,226,3.0,6.0,90,0.00,,,0.00,Wunderground v.1.15,2013-01-19 07:20:00,
2013-01-19 01:26:00,34.1,31.5,29.75,SW,223,3.0,6.0,90,0.00,,,0.00,Wunderground v.1.15,2013-01-19 07:26:00,
2013-01-19 01:28:00,34.0,31.4,29.75,SW,226,3.0,6.0,90,0.00,,,0.00,Wunderground v.1.15,2013-01-19 07:28:00,
2013-01-19 01:30:00,33.9,31.3,29.75,SSW,204,3.0,6.0,90,0.00,,,0.00,Wunderground v.1.15,2013-01-19 07:30:00,
2013-01-19 01:34:00,33.8,31.2,29.75,SW,223,3.0,6.0,90,0.00,,,0.00,Wunderground v.1.15,2013-01-19 07:34:00,
2013-01-19 01:36:00,33.7,31.1,29.75,SSW,212,3.0,6.0,90,0.00,,,0.00,Wunderground v.1.15,2013-01-19 07:36:00,
2013-01-19 01:42:00,33.5,30.9,29.75,SW,235,3.0,6.0,90,0.00,,,0.00,Wunderground v.1.15,2013-01-19 07:42:00,
2013-01-19 01:48:00,33.2,30.6,29.75,SSW,210,2.0,6.0,90,0.00,,,0.00,Wunderground v.1.15,2013-01-19 07:48:00,
2013-01-19 01:52:00,33.1,30.5,29.76,SW,229,2.0,6.0,90,0.00,,,0.00,Wunderground v.1.15,2013-01-19 07:52:00,
2013-01-19 01:54:00,33.0,30.4,29.76,SW,236,3.0,6.0,90,0.00,,,0.00,Wunderground v.1.15,2013-01-19 07:54:00,
2013-01-19 01:56:00,33.1,30.8,29.76,WSW,239,3.0,6.0,91,0.00,,,0.00,Wunderground v.1.15,2013-01-19 07:56:00,
2013-01-19 02:02:00,33.2,30.9,29.75,SSW,211,3.0,6.0,91,0.00,,,0.00,Wunderground v.1.15,2013-01-19 08:02:00,
2013-01-19 02:04:00,33.2,30.9,29.75,SW,225,3.0,6.0,91,0.00,,,0.00,Wunderground v.1.15,2013-01-19 08:04:00,
2013-01-19 02:10:00,33.1,30.8,29.75,SSW,211,2.0,6.0,91,0.00,,,0.00,Wunderground v.1.15,2013-01-19 08:10:00,
2013-01-19 02:12:00,33.1,30.8,29.75,SW,219,2.0,6.0,91,0.00,,,0.00,Wunderground v.1.15,2013-01-19 08:12:00,
2013-01-19 02:18:00,33.1,30.8,29.75,SW,226,2.0,6.0,91,0.00,,,0.00,Wunderground v.1.15,2013-01-19 08:18:00,
2013-01-19 02:24:00,33.2,30.9,29.75,SSW,210,3.0,6.0,91,0.00,,,0.00,Wunderground v.1.15,2013-01-19 08:24:00,
2013-01-19 02:26:00,33.2,30.9,29.75,SW,219,3.0,6.0,91,0.00,,,0.00,Wunderground v.1.15,2013-01-19 08:26:00,
2013-01-19 02:32:00,33.2,30.9,29.75,SSE,165,3.0,4.0,91,0.00,,,0.00,Wunderground v.1.15,2013-01-19 08:32:00,
2013-01-19 02:36:00,33.2,30.9,29.74,SSW,211,3.0,6.0,91,0.00,,,0.00,Wunderground v.1.15,2013-01-19 08:36:00,
2013-01-19 02:37:00,33.2,30.9,29.75,SSW,211,3.0,6.0,91,0.00,,,0.00,Wunderground v.1.15,2013-01-19 08:37:00,
2013-01-19 02:40:00,33.3,31.0,29.75,SSW,195,2.0,2.0,91,0.00,,,0.00,Wunderground v.1.15,2013-01-19 08:40:00,
2013-01-19 02:42:00,33.3,31.0,29.74,SW,222,2.0,6.0,91,0.00,,,0.00,Wunderground v.1.15,2013-01-19 08:42:00,
2013-01-19 02:44:00,33.3,31.0,29.74,SW,228,2.0,6.0,91,0.00,,,0.00,Wunderground v.1.15,2013-01-19 08:44:00,
2013-01-19 02:46:00,33.3,31.0,29.74,SSW,210,2.0,6.0,91,0.00,,,0.00,Wunderground v.1.15,2013-01-19 08:46:00,
2013-01-19 02:48:00,33.4,31.1,29.74,SW,222,2.0,6.0,91,0.00,,,0.00,Wunderground v.1.15,2013-01-19 08:48:00,
2013-01-19 02:54:00,33.5,31.2,29.74,WSW,245,2.0,6.0,91,0.00,,,0.00,Wunderground v.1.15,2013-01-19 08:54:00,
2013-01-19 02:56:00,33.5,31.2,29.74,SW,219,1.0,6.0,91,0.00,,,0.00,Wunderground v.1.15,2013-01-19 08:56:00,
2013-01-19 03:00:00,33.5,31.2,29.74,SW,225,1.0,1.0,91,0.00,,,0.00,Wunderground v.1.15,2013-01-19 09:00:00,
2013-01-19 03:02:00,33.5,31.2,29.74,WSW,252,1.0,3.0,91,0.00,,,0.00,Wunderground v.1.15,2013-01-19 09:02:00,
2013-01-19 03:08:00,33.5,30.9,29.74,WSW,238,1.0,6.0,90,0.00,,,0.00,Wunderground v.1.15,2013-01-19 09:08:00,
2013-01-19 03:10:00,33.5,30.9,29.73,WSW,238,1.0,6.0,90,0.00,,,0.00,Wunderground v.1.15,2013-01-19 09:10:00,
2013-01-19 03:14:00,33.3,30.7,29.73,WSW,238,1.0,6.0,90,0.00,,,0.00,Wunderground v.1.15,2013-01-19 09:14:00,
2013-01-19 03:16:00,33.2,30.6,29.73,WSW,238,1.0,6.0,90,0.00,,,0.00,Wunderground v.1.15,2013-01-19 09:16:00,
2013-01-19 03:18:00,33.1,30.5,29.73,WSW,238,0.0,6.0,90,0.00,,,0.00,Wunderground v.1.15,2013-01-19 09:18:00,
2013-01-19 03:22:00,32.9,30.3,29.73,WSW,238,0.0,6.0,90,0.00,,,0.00,Wunderground v.1.15,2013-01-19 09:22:00,
2013-01-19 03:24:00,32.9,30.6,29.73,WSW,238,0.0,6.0,91,0.00,,,0.00,Wunderground v.1.15,2013-01-19 09:24:00,
2013-01-19 03:30:00,32.8,30.5,29.73,WSW,238,0.0,6.0,91,0.00,,,0.00,Wunderground v.1.15,2013-01-19 09:30:00,
2013-01-19 03:32:00,32.7,30.4,29.73,WSW,238,0.0,6.0,91,0.00,,,0.00,Wunderground v.1.15,2013-01-19 09:32:00,
2013-01-19 03:38:00,32.6,30.3,29.73,WSW,238,0.0,6.0,91,0.00,,,0.00,Wunderground v.1.15,2013-01-19 09:38:00,
2013-01-19 03:42:00,32.6,30.3,29.73,WSW,238,0.0,6.0,91,0.00,,,0.00,Wunderground v.1.15,2013-01-19 09:42:00,
2013-01-19 03:44:00,32.6,30.3,29.72,WSW,238,0.0,6.0,91,0.00,,,0.00,Wunderground v.1.15,2013-01-19 09:44:00,
2013-01-19 03:48:00,32.7,30.6,29.72,WSW,238,0.0,6.0,92,0.00,,,0.00,Wunderground v.1.15,2013-01-19 09:48:00,
2013-01-19 03:52:00,32.9,30.8,29.73,WSW,257,1.0,6.0,92,0.00,,,0.00,Wunderground v.1.15,2013-01-19 09:52:00,
2013-01-19 03:54:00,32.9,30.6,29.73,WSW,257,1.0,6.0,91,0.00,,,0.00,Wunderground v.1.15,2013-01-19 09:54:00,
2013-01-19 03:56:00,32.8,30.5,29.73,NW,318,1.0,6.0,91,0.00,,,0.00,Wunderground v.1.15,2013-01-19 09:56:00,
2013-01-19 04:02:00,32.7,30.4,29.73,NW,312,1.0,6.0,91,0.00,,,0.00,Wunderground v.1.15,2013-01-19 10:02:00,
2013-01-19 04:04:00,32.7,30.4,29.73,West,267,1.0,6.0,91,0.00,,,0.00,Wunderground v.1.15,2013-01-19 10:04:00,
2013-01-19 04:08:00,32.8,30.7,29.73,WSW,256,1.0,6.0,92,0.00,,,0.00,Wunderground v.1.15,2013-01-19 10:08:00,
2013-01-19 04:12:00,32.8,30.7,29.72,West,260,1.0,6.0,92,0.00,,,0.00,Wunderground v.1.15,2013-01-19 10:12:00,
2013-01-19 04:14:00,32.9,30.6,29.72,West,259,1.0,6.0,91,0.00,,,0.00,Wunderground v.1.15,2013-01-19 10:14:00,
2013-01-19 04:18:00,32.9,30.6,29.72,WSW,248,1.0,6.0,91,0.00,,,0.00,Wunderground v.1.15,2013-01-19 10:18:00,
2013-01-19 04:22:00,33.3,31.2,29.72,WSW,256,2.0,6.0,92,0.00,,,0.00,Wunderground v.1.15,2013-01-19 10:22:00,
2013-01-19 04:26:00,33.6,31.0,29.72,WSW,255,3.0,6.0,90,0.00,,,0.00,Wunderground v.1.15,2013-01-19 10:26:00,
2013-01-19 04:28:00,33.7,31.1,29.72,WSW,249,3.0,6.0,90,0.00,,,0.00,Wunderground v.1.15,2013-01-19 10:28:00,
2013-01-19 04:32:00,33.9,31.3,29.72,WSW,250,3.0,6.0,90,0.00,,,0.00,Wunderground v.1.15,2013-01-19 10:32:00,
2013-01-19 04:34:00,34.1,31.2,29.72,West,259,3.0,6.0,89,0.00,,,0.00,Wunderground v.1.15,2013-01-19 10:34:00,
2013-01-19 04:38:00,34.3,31.1,29.72,West,259,3.0,6.0,88,0.00,,,0.00,Wunderground v.1.15,2013-01-19 10:38:00,
2013-01-19 04:40:00,34.2,31.0,29.73,WSW,255,3.0,6.0,88,0.00,,,0.00,Wunderground v.1.15,2013-01-19 10:40:00,
2013-01-19 04:44:00,34.1,30.9,29.73,WSW,251,2.0,6.0,88,0.00,,,0.00,Wunderground v.1.15,2013-01-19 10:44:00,
2013-01-19 04:46:00,34.1,30.9,29.73,WSW,249,2.0,6.0,88,0.00,,,0.00,Wunderground v.1.15,2013-01-19 10:46:00,
2013-01-19 04:50:00,34.1,30.9,29.73,WSW,256,3.0,6.0,88,0.00,,,0.00,Wunderground v.1.15,2013-01-19 10:50:00,
2013-01-19 04:54:00,34.1,30.9,29.73,West,267,3.0,6.0,88,0.00,,,0.00,Wunderground v.1.15,2013-01-19 10:54:00,
2013-01-19 04:58:00,33.9,30.7,29.73,WSW,241,3.0,6.0,88,0.00,,,0.00,Wunderground v.1.15,2013-01-19 10:58:00,
2013-01-19 05:00:00,33.8,30.6,29.73,WSW,248,2.0,6.0,88,0.00,,,0.00,Wunderground v.1.15,2013-01-19 11:00:00,
2013-01-19 05:06:00,33.6,30.7,29.73,West,267,2.0,6.0,89,0.00,,,0.00,Wunderground v.1.15,2013-01-19 11:06:00,
2013-01-19 05:08:00,33.6,30.7,29.73,West,270,2.0,6.0,89,0.00,,,0.00,Wunderground v.1.15,2013-01-19 11:08:00,
2013-01-19 05:12:00,33.5,30.6,29.73,WSW,253,1.0,6.0,89,0.00,,,0.00,Wunderground v.1.15,2013-01-19 11:12:00,
2013-01-19 05:14:00,33.4,30.5,29.73,WSW,254,2.0,6.0,89,0.00,,,0.00,Wunderground v.1.15,2013-01-19 11:14:00,
2013-01-19 06:48:00,31.4,28.0,29.75,WSW,252,4.0,6.0,87,0.00,,,0.00,Wunderground v.1.15,2013-01-19 12:48:00,
2013-01-19 06:52:00,30.9,27.5,29.74,WSW,251,3.0,6.0,87,0.00,,,0.00,Wunderground v.1.15,2013-01-19 12:52:00,
2013-01-19 06:54:00,30.6,27.2,29.74,West,259,3.0,6.0,87,0.00,,,0.00,Wunderground v.1.15,2013-01-19 12:54:00,
2013-01-19 06:56:00,30.5,27.4,29.74,WSW,250,3.0,6.0,88,0.00,,,0.00,Wunderground v.1.15,2013-01-19 12:56:00,
2013-01-19 06:57:00,30.6,27.7,29.75,WSW,252,4.0,6.0,89,0.00,,,0.00,Wunderground v.1.15,2013-01-19 12:57:00,
2013-01-19 07:04:00,30.2,26.8,29.75,WNW,283,3.0,6.0,87,0.00,,,0.00,Wunderground v.1.15,2013-01-19 13:04:00,
2013-01-19 07:06:00,29.9,26.5,29.76,West,281,3.0,6.0,87,0.00,,,0.00,Wunderground v.1.15,2013-01-19 13:06:00,
2013-01-19 07:10:00,29.2,25.8,29.76,WSW,240,2.0,6.0,87,0.00,,,0.00,Wunderground v.1.15,2013-01-19 13:10:00,
2013-01-19 07:12:00,29.0,25.9,29.75,WSW,256,2.0,6.0,88,0.00,,,0.00,Wunderground v.1.15,2013-01-19 13:12:00,
2013-01-19 07:16:00,29.0,26.4,29.75,WSW,256,3.0,6.0,90,0.00,,,0.00,Wunderground v.1.15,2013-01-19 13:16:00,
2013-01-19 07:18:00,29.0,26.4,29.76,West,270,4.0,6.0,90,0.00,,,0.00,Wunderground v.1.15,2013-01-19 13:18:00,
2013-01-19 07:20:00,29.0,26.4,29.76,West,264,4.0,4.0,90,0.00,,,0.00,Wunderground v.1.15,2013-01-19 13:20:00,
2013-01-19 07:26:00,29.1,26.5,29.75,WSW,242,3.0,6.0,90,0.00,,,0.00,Wunderground v.1.15,2013-01-19 13:26:00,
2013-01-19 07:28:00,29.3,27.0,29.75,WSW,246,4.0,6.0,91,0.00,,,0.00,Wunderground v.1.15,2013-01-19 13:28:00,
2013-01-19 07:32:00,29.8,27.5,29.75,WSW,238,5.0,6.0,91,0.00,,,0.00,Wunderground v.1.15,2013-01-19 13:32:00,
2013-01-19 07:34:00,30.2,27.6,29.75,WSW,240,6.0,7.0,90,0.00,,,0.00,Wunderground v.1.15,2013-01-19 13:34:00,
2013-01-19 07:40:00,30.8,27.9,29.75,WSW,249,6.0,6.0,89,0.00,,,0.00,Wunderground v.1.15,2013-01-19 13:40:00,
2013-01-19 07:42:00,30.9,28.0,29.75,WSW,243,6.0,6.0,89,0.00,,,0.00,Wunderground v.1.15,2013-01-19 13:42:00,
2013-01-19 07:48:00,31.1,28.0,29.75,WSW,257,6.0,6.0,88,0.00,,,0.00,Wunderground v.1.15,2013-01-19 13:48:00,
2013-01-19 07:50:00,31.1,28.0,29.75,West,269,5.0,5.0,88,0.00,,,0.00,Wunderground v.1.15,2013-01-19 13:50:00,
2013-01-19 07:54:00,31.0,27.9,29.75,West,266,5.0,6.0,88,0.00,,,0.00,Wunderground v.1.15,2013-01-19 13:54:00,
2013-01-19 07:59:00,30.4,27.3,29.75,WSW,245,4.0,6.0,88,0.00,,,0.00,Wunderground v.1.15,2013-01-19 13:59:00,
2013-01-19 08:04:00,30.5,27.9,29.75,WSW,240,4.0,6.0,90,0.00,,,0.00,Wunderground v.1.15,2013-01-19 14:04:00,
2013-01-19 08:06:00,30.6,27.7,29.75,WSW,251,5.0,6.0,89,0.00,,,0.00,Wunderground v.1.15,2013-01-19 14:06:00,
2013-01-19 08:08:00,30.8,27.9,29.75,West,266,5.0,6.0,89,0.00,,,0.00,Wunderground v.1.15,2013-01-19 14:08:00,
2013-01-19 08:12:00,30.6,27.7,29.75,West,263,5.0,6.0,89,0.00,,,0.00,Wunderground v.1.15,2013-01-19 14:12:00,
2013-01-19 08:14:00,30.7,27.8,29.75,WSW,253,5.0,6.0,89,0.00,,,0.00,Wunderground v.1.15,2013-01-19 14:14:00,
2013-01-19 08:18:00,30.8,27.9,29.76,WNW,284,5.0,6.0,89,0.00,,,0.00,Wunderground v.1.15,2013-01-19 14:18:00,
2013-01-19 08:22:00,30.8,27.9,29.76,West,264,5.0,6.0,89,0.00,,,0.00,Wunderground v.1.15,2013-01-19 14:22:00,
2013-01-19 08:24:00,30.7,27.8,29.76,West,264,5.0,6.0,89,0.00,,,0.00,Wunderground v.1.15,2013-01-19 14:24:00,
2013-01-19 08:28:00,30.8,28.2,29.77,West,262,5.0,6.0,90,0.00,,,0.00,Wunderground v.1.15,2013-01-19 14:28:00,
2013-01-19 08:32:00,31.2,28.6,29.77,West,267,5.0,7.0,90,0.00,,,0.00,Wunderground v.1.15,2013-01-19 14:32:00,
2013-01-19 08:34:00,31.3,28.4,29.77,West,270,5.0,7.0,89,0.00,,,0.00,Wunderground v.1.15,2013-01-19 14:34:00,
2013-01-19 08:38:00,31.7,28.8,29.77,West,278,6.0,7.0,89,0.00,,,0.00,Wunderground v.1.15,2013-01-19 14:38:00,
2013-01-19 08:40:00,31.9,29.0,29.77,West,273,7.0,11.0,89,0.00,,,0.00,Wunderground v.1.15,2013-01-19 14:40:00,
2013-01-19 08:44:00,32.2,29.0,29.77,West,273,7.0,11.0,88,0.00,,,0.00,Wunderground v.1.15,2013-01-19 14:44:00,
2013-01-19 08:46:00,32.3,28.9,29.77,WNW,283,8.0,11.0,87,0.00,,,0.00,Wunderground v.1.15,2013-01-19 14:46:00,
2013-01-19 08:50:00,32.5,29.1,29.77,West,280,8.0,10.0,87,0.00,,,0.00,Wunderground v.1.15,2013-01-19 14:50:00,
2013-01-19 08:52:00,32.5,29.1,29.77,West,269,8.0,10.0,87,0.00,,,0.00,Wunderground v.1.15,2013-01-19 14:52:00,
2013-01-19 08:56:00,32.7,29.3,29.77,West,269,8.0,10.0,87,0.00,,,0.00,Wunderground v.1.15,2013-01-19 14:56:00,
2013-01-19 08:58:00,32.8,29.1,29.77,West,272,9.0,10.0,86,0.00,,,0.00,Wunderground v.1.15,2013-01-19 14:58:00,
2013-01-19 09:04:00,32.9,29.2,29.77,West,269,8.0,9.0,86,0.00,,,0.00,Wunderground v.1.15,2013-01-19 15:04:00,
2013-01-19 09:08:00,33.0,29.6,29.78,WNW,284,8.0,9.0,87,0.00,,,0.00,Wunderground v.1.15,2013-01-19 15:08:00,
2013-01-19 09:12:00,33.4,29.7,29.78,West,273,8.0,8.0,86,0.00,,,0.00,Wunderground v.1.15,2013-01-19 15:12:00,
2013-01-19 09:14:00,33.7,30.0,29.78,West,273,8.0,8.0,86,0.00,,,0.00,Wunderground v.1.15,2013-01-19 15:14:00,
2013-01-19 09:18:00,34.2,30.2,29.79,WNW,288,8.0,9.0,85,0.00,,,0.00,Wunderground v.1.15,2013-01-19 15:18:00,
2013-01-19 09:22:00,34.5,30.5,29.79,WNW,300,8.0,10.0,85,0.00,,,0.00,Wunderground v.1.15,2013-01-19 15:22:00,
2013-01-19 09:24:00,34.7,30.7,29.79,WNW,294,8.0,10.0,85,0.00,,,0.00,Wunderground v.1.15,2013-01-19 15:24:00,
2013-01-19 09:26:00,34.8,30.8,29.79,WNW,284,8.0,10.0,85,0.00,,,0.00,Wunderground v.1.15,2013-01-19 15:26:00,
2013-01-19 09:28:00,34.9,30.6,29.80,WNW,285,8.0,10.0,84,0.00,,,0.00,Wunderground v.1.15,2013-01-19 15:28:00,
2013-01-19 09:32:00,35.1,30.8,29.80,West,269,7.0,8.0,84,0.00,,,0.00,Wunderground v.1.15,2013-01-19 15:32:00,
2013-01-19 09:34:00,35.2,30.9,29.80,WNW,285,7.0,8.0,84,0.00,,,0.00,Wunderground v.1.15,2013-01-19 15:34:00,
2013-01-19 09:36:00,35.3,30.9,29.80,WNW,288,6.0,8.0,84,0.00,,,0.00,Wunderground v.1.15,2013-01-19 15:36:00,
2013-01-19 09:40:00,35.6,31.2,29.81,West,281,6.0,10.0,84,0.00,,,0.00,Wunderground v.1.15,2013-01-19 15:40:00,
2013-01-19 09:42:00,35.9,31.2,29.81,WNW,295,7.0,11.0,83,0.00,,,0.00,Wunderground v.1.15,2013-01-19 15:42:00,
2013-01-19 09:46:00,36.6,31.6,29.81,WNW,295,8.0,11.0,82,0.00,,,0.00,Wunderground v.1.15,2013-01-19 15:46:00,
2013-01-19 09:48:00,36.8,31.5,29.81,WNW,290,9.0,11.0,81,0.00,,,0.00,Wunderground v.1.15,2013-01-19 15:48:00,
2013-01-19 09:50:00,37.2,31.9,29.81,WNW,293,10.0,12.0,81,0.00,,,0.00,Wunderground v.1.15,2013-01-19 15:50:00,
2013-01-19 09:52:00,37.4,32.1,29.81,WNW,294,10.0,12.0,81,0.00,,,0.00,Wunderground v.1.15,2013-01-19 15:52:00,
2013-01-19 09:56:00,37.6,31.7,29.81,WNW,293,10.0,13.0,79,0.00,,,0.00,Wunderground v.1.15,2013-01-19 15:56:00,
2013-01-19 09:58:00,37.6,32.0,29.81,WNW,294,11.0,13.0,80,0.00,,,0.00,Wunderground v.1.15,2013-01-19 15:58:00,
2013-01-19 10:00:00,37.5,31.6,29.81,WNW,298,10.0,10.0,79,0.00,,,0.00,Wunderground v.1.15,2013-01-19 16:00:00,
2013-01-19 10:04:00,37.6,32.0,29.82,WNW,287,10.0,11.0,80,0.00,,,0.00,Wunderground v.1.15,2013-01-19 16:04:00,
2013-01-19 10:06:00,37.7,32.1,29.82,WNW,295,10.0,11.0,80,0.00,,,0.00,Wunderground v.1.15,2013-01-19 16:06:00,
2013-01-19 10:11:00,37.9,32.3,29.81,WNW,288,9.0,10.0,80,0.00,,,0.00,Wunderground v.1.15,2013-01-19 16:11:00,
2013-01-19 10:18:00,38.4,32.5,29.82,NW,318,10.0,10.0,79,0.00,,,0.00,Wunderground v.1.15,2013-01-19 16:18:00,
2013-01-19 10:20:00,38.5,32.9,29.82,WNW,283,10.0,11.0,80,0.00,,,0.00,Wunderground v.1.15,2013-01-19 16:20:00,
2013-01-19 10:22:00,38.7,32.7,29.82,WNW,302,10.0,11.0,79,0.00,,,0.00,Wunderground v.1.15,2013-01-19 16:22:00,
2013-01-19 10:28:00,39.2,33.2,29.82,WNW,285,9.0,11.0,79,0.00,,,0.00,Wunderground v.1.15,2013-01-19 16:28:00,
2013-01-19 10:30:00,39.4,33.4,29.82,WNW,284,9.0,9.0,79,0.00,,,0.00,Wunderground v.1.15,2013-01-19 16:30:00,
2013-01-19 10:32:00,39.5,33.2,29.82,WNW,295,8.0,10.0,78,0.00,,,0.00,Wunderground v.1.15,2013-01-19 16:32:00,
2013-01-19 10:34:00,39.8,33.5,29.82,WNW,295,8.0,10.0,78,0.00,,,0.00,Wunderground v.1.15,2013-01-19 16:34:00,
2013-01-19 10:40:00,40.2,33.6,29.82,WNW,289,8.0,9.0,77,0.00,,,0.00,Wunderground v.1.15,2013-01-19 16:40:00,
2013-01-19 10:42:00,40.3,33.3,29.82,WNW,302,8.0,10.0,76,0.00,,,0.00,Wunderground v.1.15,2013-01-19 16:42:00,
2013-01-19 10:44:00,40.3,33.3,29.82,WNW,292,9.0,10.0,76,0.00,,,0.00,Wunderground v.1.15,2013-01-19 16:44:00,
2013-01-19 10:50:00,40.6,33.3,29.83,West,275,9.0,9.0,75,0.00,,,0.00,Wunderground v.1.15,2013-01-19 16:50:00,
2013-01-19 10:52:00,40.7,33.7,29.83,WNW,294,9.0,9.0,76,0.00,,,0.00,Wunderground v.1.15,2013-01-19 16:52:00,
2013-01-19 10:54:00,40.8,33.8,29.83,WNW,299,9.0,11.0,76,0.00,,,0.00,Wunderground v.1.15,2013-01-19 16:54:00,
2013-01-19 10:58:00,41.1,33.8,29.83,WNW,297,9.0,11.0,75,0.00,,,0.00,Wunderground v.1.15,2013-01-19 16:58:00,
2013-01-19 11:02:00,41.3,33.6,29.83,NW,304,9.0,9.0,74,0.00,,,0.00,Wunderground v.1.15,2013-01-19 17:02:00,
2013-01-19 11:04:00,41.4,33.7,29.83,NW,319,9.0,10.0,74,0.00,,,0.00,Wunderground v.1.15,2013-01-19 17:04:00,
2013-01-19 11:08:00,41.8,33.8,29.83,WNW,295,11.0,14.0,73,0.00,,,0.00,Wunderground v.1.15,2013-01-19 17:08:00,
2013-01-19 11:10:00,42.0,34.0,29.83,NW,310,11.0,11.0,73,0.00,,,0.00,Wunderground v.1.15,2013-01-19 17:10:00,
2013-01-19 11:12:00,42.3,33.9,29.83,NW,322,11.0,12.0,72,0.00,,,0.00,Wunderground v.1.15,2013-01-19 17:12:00,
2013-01-19 11:18:00,42.7,33.9,29.83,NW,317,11.0,14.0,71,0.00,,,0.00,Wunderground v.1.15,2013-01-19 17:18:00,
2013-01-19 11:22:00,42.9,33.8,29.83,WNW,300,11.0,12.0,70,0.00,,,0.00,Wunderground v.1.15,2013-01-19 17:22:00,
2013-01-19 11:27:00,43.1,33.6,29.82,NW,318,11.0,14.0,69,0.00,,,0.00,Wunderground v.1.15,2013-01-19 17:27:00,
2013-01-19 11:29:00,43.1,33.6,29.82,WNW,303,11.0,11.0,69,0.00,,,0.00,Wunderground v.1.15,2013-01-19 17:29:00,
2013-01-19 11:38:00,43.4,33.9,29.82,WNW,297,10.0,12.0,69,0.00,,,0.00,Wunderground v.1.15,2013-01-19 17:38:00,
2013-01-19 11:44:00,43.4,33.9,29.82,WNW,287,10.0,10.0,69,0.00,,,0.00,Wunderground v.1.15,2013-01-19 17:44:00,
2013-01-19 11:48:00,43.4,33.9,29.82,WNW,295,10.0,10.0,69,0.00,,,0.00,Wunderground v.1.15,2013-01-19 17:48:00,
2013-01-19 11:58:00,44.1,34.6,29.82,WNW,283,8.0,11.0,69,0.00,,,0.00,Wunderground v.1.15,2013-01-19 17:58:00,
2013-01-19 12:00:00,44.2,34.7,29.82,WNW,285,8.0,9.0,69,0.00,,,0.00,Wunderground v.1.15,2013-01-19 18:00:00,
2013-01-19 12:06:00,44.3,34.4,29.82,NW,321,10.0,10.0,68,0.00,,,0.00,Wunderground v.1.15,2013-01-19 18:06:00,
2013-01-19 12:11:00,44.6,34.3,29.82,NW,317,11.0,12.0,67,0.00,,,0.00,Wunderground v.1.15,2013-01-19 18:11:00,
2013-01-19 12:14:00,44.8,34.9,29.82,WNW,297,11.0,12.0,68,0.00,,,0.00,Wunderground v.1.15,2013-01-19 18:14:00,
2013-01-19 12:22:00,44.8,34.5,29.82,WNW,288,11.0,11.0,67,0.00,,,0.00,Wunderground v.1.15,2013-01-19 18:22:00,
2013-01-19 12:24:00,44.7,34.8,29.82,WNW,295,11.0,11.0,68,0.00,,,0.00,Wunderground v.1.15,2013-01-19 18:24:00,
2013-01-19 12:30:00,45.1,35.2,29.82,WNW,295,11.0,11.0,68,0.00,,,0.00,Wunderground v.1.15,2013-01-19 18:30:00,
2013-01-19 12:36:00,45.3,35.0,29.82,NW,317,11.0,15.0,67,0.00,,,0.00,Wunderground v.1.15,2013-01-19 18:36:00,
2013-01-19 12:37:00,45.3,35.0,29.82,WNW,288,12.0,15.0,67,0.00,,,0.00,Wunderground v.1.15,2013-01-19 18:37:00,
2013-01-19 12:44:00,45.4,34.7,29.82,WNW,285,11.0,13.0,66,0.00,,,0.00,Wunderground v.1.15,2013-01-19 18:44:00,
2013-01-19 12:50:00,46.1,33.8,29.82,NW,311,11.0,15.0,62,0.00,,,0.00,Wunderground v.1.15,2013-01-19 18:50:00,
2013-01-19 12:52:00,46.5,35.0,29.82,NW,317,12.0,15.0,64,0.00,,,0.00,Wunderground v.1.15,2013-01-19 18:52:00,
2013-01-19 12:58:00,46.5,34.6,29.83,NW,311,13.0,15.0,63,0.00,,,0.00,Wunderground v.1.15,2013-01-19 18:58:00,
2013-01-19 13:04:00,45.5,34.8,29.83,NNW,332,16.0,20.0,66,0.00,,,0.00,Wunderground v.1.15,2013-01-19 19:04:00,
2013-01-19 13:10:00,45.0,34.3,29.83,WNW,295,17.0,22.0,66,0.00,,,0.00,Wunderground v.1.15,2013-01-19 19:10:00,
2013-01-19 13:18:00,45.1,35.2,29.84,NW,311,16.0,23.0,68,0.00,,,0.00,Wunderground v.1.15,2013-01-19 19:18:00,
2013-01-19 13:26:00,44.7,33.3,29.84,NW,315,16.0,19.0,64,0.00,,,0.00,Wunderground v.1.15,2013-01-19 19:26:00,
2013-01-19 13:32:00,44.4,33.0,29.84,NW,319,18.0,19.0,64,0.00,,,0.00,Wunderground v.1.15,2013-01-19 19:32:00,
2013-01-19 13:38:00,44.5,33.5,29.85,NW,314,18.0,21.0,65,0.00,,,0.00,Wunderground v.1.15,2013-01-19 19:38:00,
2013-01-19 13:40:00,44.2,33.2,29.85,NW,309,18.0,24.0,65,0.00,,,0.00,Wunderground v.1.15,2013-01-19 19:40:00,
2013-01-19 13:44:00,44.1,33.5,29.85,NW,319,17.0,24.0,66,0.00,,,0.00,Wunderground v.1.15,2013-01-19 19:44:00,
2013-01-19 13:50:00,43.8,33.6,29.86,NW,317,17.0,17.0,67,0.00,,,0.00,Wunderground v.1.15,2013-01-19 19:50:00,
2013-01-19 13:56:00,43.3,33.1,29.86,NW,323,17.0,18.0,67,0.00,,,0.00,Wunderground v.1.15,2013-01-19 19:56:00,
2013-01-19 14:00:00,43.2,33.3,29.86,NW,326,18.0,18.0,68,0.00,,,0.00,Wunderground v.1.15,2013-01-19 20:00:00,
2013-01-19 14:04:00,43.1,33.3,29.87,NW,308,19.0,25.0,68,0.00,,,0.00,Wunderground v.1.15,2013-01-19 20:04:00,
2013-01-19 14:10:00,43.3,33.8,29.87,NW,317,17.0,17.0,69,0.00,,,0.00,Wunderground v.1.15,2013-01-19 20:10:00,
2013-01-19 14:18:00,42.9,33.4,29.87,NW,321,17.0,19.0,69,0.00,,,0.00,Wunderground v.1.15,2013-01-19 20:18:00,
2013-01-19 14:20:00,42.9,33.8,29.87,WNW,302,17.0,17.0,70,0.00,,,0.00,Wunderground v.1.15,2013-01-19 20:20:00,
2013-01-19 14:26:00,42.9,33.8,29.87,NW,305,16.0,17.0,70,0.00,,,0.00,Wunderground v.1.15,2013-01-19 20:26:00,
2013-01-19 14:32:00,43.2,33.7,29.88,WNW,302,16.0,23.0,69,0.00,,,0.00,Wunderground v.1.15,2013-01-19 20:32:00,
2013-01-19 14:34:00,42.9,33.1,29.88,WNW,300,17.0,23.0,68,0.00,,,0.00,Wunderground v.1.15,2013-01-19 20:34:00,
2013-01-19 14:40:00,42.2,33.1,29.88,WNW,298,18.0,19.0,70,0.00,,,0.00,Wunderground v.1.15,2013-01-19 20:40:00,
2013-01-19 14:48:00,41.7,33.3,29.89,NW,320,18.0,19.0,72,0.00,,,0.00,Wunderground v.1.15,2013-01-19 20:48:00,
2013-01-19 14:52:00,41.4,32.7,29.89,WNW,298,19.0,24.0,71,0.00,,,0.00,Wunderground v.1.15,2013-01-19 20:52:00,
2013-01-19 14:58:00,41.0,33.0,29.89,WNW,299,19.0,24.0,73,0.00,,,0.00,Wunderground v.1.15,2013-01-19 20:58:00,
2013-01-19 15:02:00,40.8,32.5,29.89,WNW,302,17.0,19.0,72,0.00,,,0.00,Wunderground v.1.15,2013-01-19 21:02:00,
2013-01-19 15:04:00,40.8,33.2,29.89,WNW,297,17.0,19.0,74,0.00,,,0.00,Wunderground v.1.15,2013-01-19 21:04:00,
2013-01-19 15:10:00,40.7,32.7,29.89,WNW,294,17.0,17.0,73,0.00,,,0.00,Wunderground v.1.15,2013-01-19 21:10:00,
2013-01-19 15:12:00,40.7,32.7,29.89,WNW,287,16.0,17.0,73,0.00,,,0.00,Wunderground v.1.15,2013-01-19 21:12:00,
2013-01-19 15:18:00,40.8,33.2,29.90,NW,315,16.0,20.0,74,0.00,,,0.00,Wunderground v.1.15,2013-01-19 21:18:00,
2013-01-19 15:22:00,40.7,32.7,29.90,WNW,302,17.0,23.0,73,0.00,,,0.00,Wunderground v.1.15,2013-01-19 21:22:00,
2013-01-19 15:28:00,40.6,32.6,29.90,WNW,300,17.0,23.0,73,0.00,,,0.00,Wunderground v.1.15,2013-01-19 21:28:00,
2013-01-19 15:36:00,40.1,32.1,29.91,NW,305,17.0,22.0,73,0.00,,,0.00,Wunderground v.1.15,2013-01-19 21:36:00,
2013-01-19 15:44:00,39.5,32.2,29.92,WNW,294,19.0,19.0,75,0.00,,,0.00,Wunderground v.1.15,2013-01-19 21:44:00,
2013-01-19 15:52:00,39.0,32.1,29.92,WNW,288,18.0,23.0,76,0.00,,,0.00,Wunderground v.1.15,2013-01-19 21:52:00,
2013-01-19 15:54:00,39.0,32.1,29.92,WNW,293,18.0,26.0,76,0.00,,,0.00,Wunderground v.1.15,2013-01-19 21:54:00,
2013-01-19 15:58:00,38.8,31.9,29.92,WNW,285,19.0,26.0,76,0.00,,,0.00,Wunderground v.1.15,2013-01-19 21:58:00,
2013-01-19 16:02:00,38.6,31.7,29.92,WNW,298,20.0,20.0,76,0.00,,,0.00,Wunderground v.1.15,2013-01-19 22:02:00,
2013-01-19 16:10:00,38.1,30.9,29.93,WNW,298,19.0,19.0,75,0.00,,,0.00,Wunderground v.1.15,2013-01-19 22:10:00,
2013-01-19 16:12:00,38.1,31.2,29.93,NW,311,18.0,22.0,76,0.00,,,0.00,Wunderground v.1.15,2013-01-19 22:12:00,
2013-01-19 16:18:00,38.0,31.1,29.94,NW,316,18.0,22.0,76,0.00,,,0.00,Wunderground v.1.15,2013-01-19 22:18:00,
2013-01-19 16:20:00,37.9,31.0,29.94,WNW,302,18.0,18.0,76,0.00,,,0.00,Wunderground v.1.15,2013-01-19 22:20:00,
2013-01-19 16:24:00,36.7,28.5,29.95,NNW,328,19.0,19.0,72,0.00,,,0.00,Wunderground v.1.15,2013-01-19 22:24:00,
2013-01-19 16:30:00,34.8,28.3,29.96,NNW,336,19.0,19.0,77,0.00,,,0.00,Wunderground v.1.15,2013-01-19 22:30:00,
2013-01-19 16:32:00,34.4,28.2,29.96,NNW,345,19.0,20.0,78,0.00,,,0.00,Wunderground v.1.15,2013-01-19 22:32:00,
2013-01-19 16:36:00,33.8,28.0,29.96,NNW,340,18.0,20.0,79,0.00,,,0.00,Wunderground v.1.15,2013-01-19 22:36:00,
2013-01-19 16:40:00,33.3,27.5,29.97,NNW,344,16.0,16.0,79,0.00,,,0.00,Wunderground v.1.15,2013-01-19 22:40:00,
2013-01-19 16:42:00,33.2,27.4,29.97,NNW,333,16.0,16.0,79,0.00,,,0.00,Wunderground v.1.15,2013-01-19 22:42:00,
2013-01-19 16:50:00,32.6,27.1,29.97,NW,314,14.0,15.0,80,0.00,,,0.00,Wunderground v.1.15,2013-01-19 22:50:00,
2013-01-19 16:52:00,32.5,26.7,29.97,WNW,301,13.0,15.0,79,0.00,,,0.00,Wunderground v.1.15,2013-01-19 22:52:00,
2013-01-19 16:58:00,32.9,23.8,29.97,NW,305,15.0,20.0,69,0.00,,,0.00,Wunderground v.1.15,2013-01-19 22:58:00,
2013-01-19 17:02:00,33.0,23.6,29.97,NW,307,17.0,20.0,68,0.00,,,0.00,Wunderground v.1.15,2013-01-19 23:02:00,
2013-01-19 17:06:00,33.2,23.8,29.98,NW,306,18.0,20.0,68,0.00,,,0.00,Wunderground v.1.15,2013-01-19 23:06:00,
2013-01-19 17:14:00,32.9,24.2,29.99,WNW,283,17.0,17.0,70,0.00,,,0.00,Wunderground v.1.15,2013-01-19 23:14:00,
2013-01-19 17:18:00,32.5,24.1,29.99,NW,324,15.0,17.0,71,0.00,,,0.00,Wunderground v.1.15,2013-01-19 23:18:00,
2013-01-19 17:22:00,31.9,21.8,29.99,NW,305,16.0,22.0,66,0.00,,,0.00,Wunderground v.1.15,2013-01-19 23:22:00,
2013-01-19 17:26:00,31.3,21.6,30.00,NNW,342,17.0,22.0,67,0.00,,,0.00,Wunderground v.1.15,2013-01-19 23:26:00,
2013-01-19 17:28:00,31.1,21.8,30.00,NW,320,19.0,23.0,68,0.00,,,0.00,Wunderground v.1.15,2013-01-19 23:28:00,
2013-01-19 17:34:00,30.6,22.0,30.00,NW,316,19.0,20.0,70,0.00,,,0.00,Wunderground v.1.15,2013-01-19 23:34:00,
2013-01-19 17:36:00,30.4,22.1,30.01,NW,309,19.0,21.0,71,0.00,,,0.00,Wunderground v.1.15,2013-01-19 23:36:00,
2013-01-19 17:44:00,29.8,22.5,30.02,North,11,16.0,26.0,74,0.00,,,0.00,Wunderground v.1.15,2013-01-19 23:44:00,
2013-01-19 17:50:00,29.2,22.3,30.02,NNW,334,18.0,18.0,75,0.00,,,0.00,Wunderground v.1.15,2013-01-19 23:50:00,
2013-01-19 17:58:00,28.2,22.8,30.04,NNW,335,16.0,18.0,80,0.00,,,0.00,Wunderground v.1.15,2013-01-19 23:58:00,
2013-01-19 18:02:00,27.5,22.1,30.04,NNW,340,14.0,15.0,80,0.00,,,0.00,Wunderground v.1.15,2013-01-20 00:02:00,
2013-01-19 18:08:00,26.8,21.8,30.05,NW,304,14.0,19.0,81,0.00,,,0.00,Wunderground v.1.15,2013-01-20 00:08:00,
2013-01-19 18:10:00,26.7,21.7,30.05,NNW,328,14.0,14.0,81,0.00,,,0.00,Wunderground v.1.15,2013-01-20 00:10:00,
2013-01-19 18:14:00,26.6,21.6,30.05,NW,306,14.0,18.0,81,0.00,,,0.00,Wunderground v.1.15,2013-01-20 00:14:00,
2013-01-19 18:24:00,26.3,19.8,30.06,NNW,328,16.0,19.0,76,0.00,,,0.00,Wunderground v.1.15,2013-01-20 00:24:00,
2013-01-19 18:30:00,26.1,19.9,30.06,North,3,18.0,18.0,77,0.00,,,0.00,Wunderground v.1.15,2013-01-20 00:30:00,
2013-01-19 18:38:00,25.8,19.3,30.07,NW,322,18.0,24.0,76,0.00,,,0.00,Wunderground v.1.15,2013-01-20 00:38:00,
2013-01-19 18:40:00,25.3,18.5,30.08,NNW,338,19.0,22.0,75,0.00,,,0.00,Wunderground v.1.15,2013-01-20 00:40:00,
2013-01-19 18:46:00,23.3,16.9,30.09,NNW,332,22.0,29.0,76,0.00,,,0.00,Wunderground v.1.15,2013-01-20 00:46:00,
2013-01-19 18:52:00,21.5,15.4,30.10,NW,321,21.0,24.0,77,0.00,,,0.00,Wunderground v.1.15,2013-01-20 00:52:00,
2013-01-19 18:58:00,20.7,14.3,30.10,North,6,20.0,25.0,76,0.00,,,0.00,Wunderground v.1.15,2013-01-20 00:58:00,
2013-01-19 19:04:00,19.7,10.8,30.11,NW,317,22.0,25.0,68,0.00,,,0.00,Wunderground v.1.15,2013-01-20 01:04:00,
2013-01-19 19:10:00,19.0,11.5,30.12,NW,322,23.0,23.0,72,0.00,,,0.00,Wunderground v.1.15,2013-01-20 01:10:00,
2013-01-19 19:12:00,18.9,11.7,30.12,NW,311,22.0,28.0,73,0.00,,,0.00,Wunderground v.1.15,2013-01-20 01:12:00,
2013-01-19 19:18:00,18.3,10.1,30.12,NNW,328,21.0,28.0,70,0.00,,,0.00,Wunderground v.1.15,2013-01-20 01:18:00,
2013-01-19 19:22:00,17.8,9.7,30.13,NNW,327,22.0,22.0,70,0.00,,,0.00,Wunderground v.1.15,2013-01-20 01:22:00,
2013-01-19 19:26:00,17.5,10.0,30.13,NW,322,22.0,25.0,72,0.00,,,0.00,Wunderground v.1.15,2013-01-20 01:26:00,
2013-01-19 19:28:00,17.3,10.1,30.13,North,352,22.0,25.0,73,0.00,,,0.00,Wunderground v.1.15,2013-01-20 01:28:00,
2013-01-19 19:34:00,16.8,9.9,30.14,NW,318,20.0,22.0,74,0.00,,,0.00,Wunderground v.1.15,2013-01-20 01:34:00,
2013-01-19 19:36:00,16.8,9.9,30.14,NNW,344,19.0,22.0,74,0.00,,,0.00,Wunderground v.1.15,2013-01-20 01:36:00,
2013-01-19 19:42:00,16.2,8.4,30.14,NNW,347,20.0,28.0,71,0.00,,,0.00,Wunderground v.1.15,2013-01-20 01:42:00,
2013-01-19 19:46:00,15.7,7.6,30.15,NNW,338,20.0,28.0,70,0.00,,,0.00,Wunderground v.1.15,2013-01-20 01:46:00,
2013-01-19 19:50:00,15.4,7.7,30.15,NNW,344,21.0,21.0,71,0.00,,,0.00,Wunderground v.1.15,2013-01-20 01:50:00,
2013-01-19 19:52:00,15.2,7.5,30.16,NW,318,21.0,21.0,71,0.00,,,0.00,Wunderground v.1.15,2013-01-20 01:52:00,
2013-01-19 19:58:00,14.9,7.2,30.16,NW,324,20.0,23.0,71,0.00,,,0.00,Wunderground v.1.15,2013-01-20 01:58:00,
2013-01-19 20:04:00,14.7,7.3,30.17,NW,324,19.0,20.0,72,0.00,,,0.00,Wunderground v.1.15,2013-01-20 02:04:00,
2013-01-19 20:10:00,14.3,6.9,30.17,NNW,333,18.0,19.0,72,0.00,,,0.00,Wunderground v.1.15,2013-01-20 02:10:00,
2013-01-19 20:15:00,13.9,6.5,30.18,NNW,328,19.0,21.0,72,0.00,,,0.00,Wunderground v.1.15,2013-01-20 02:15:00,
2013-01-19 20:24:00,13.2,5.9,30.18,NW,321,18.0,20.0,72,0.00,,,0.00,Wunderground v.1.15,2013-01-20 02:24:00,
2013-01-19 20:30:00,13.0,5.7,30.18,NNW,334,17.0,19.0,72,0.00,,,0.00,Wunderground v.1.15,2013-01-20 02:30:00,
2013-01-19 20:36:00,12.9,5.3,30.18,NNW,347,18.0,22.0,71,0.00,,,0.00,Wunderground v.1.15,2013-01-20 02:36:00,
2013-01-19 20:42:00,12.7,5.1,30.18,NW,318,20.0,22.0,71,0.00,,,0.00,Wunderground v.1.15,2013-01-20 02:42:00,
2013-01-19 20:44:00,12.6,5.3,30.18,NNW,329,20.0,23.0,72,0.00,,,0.00,Wunderground v.1.15,2013-01-20 02:44:00,
2013-01-19 20:48:00,12.5,5.2,30.19,NW,323,19.0,23.0,72,0.00,,,0.00,Wunderground v.1.15,2013-01-20 02:48:00,
2013-01-19 20:52:00,12.2,4.6,30.19,NNW,335,18.0,21.0,71,0.00,,,0.00,Wunderground v.1.15,2013-01-20 02:52:00,
2013-01-19 20:54:00,12.2,4.6,30.19,North,350,18.0,21.0,71,0.00,,,0.00,Wunderground v.1.15,2013-01-20 02:54:00,
2013-01-19 21:00:00,12.0,5.0,30.19,NW,309,18.0,18.0,73,0.00,,,0.00,Wunderground v.1.15,2013-01-20 03:00:00,
2013-01-19 21:02:00,12.0,5.0,30.19,NNW,333,18.0,18.0,73,0.00,,,0.00,Wunderground v.1.15,2013-01-20 03:02:00,
2013-01-19 21:08:00,11.7,5.0,30.20,NW,313,15.0,18.0,74,0.00,,,0.00,Wunderground v.1.15,2013-01-20 03:08:00,
2013-01-19 21:20:00,11.1,4.4,30.20,NW,321,16.0,16.0,74,0.00,,,0.00,Wunderground v.1.15,2013-01-20 03:20:00,
2013-01-19 21:24:00,10.9,4.2,30.21,NNW,329,14.0,16.0,74,0.00,,,0.00,Wunderground v.1.15,2013-01-20 03:24:00,
2013-01-19 21:30:00,10.6,4.2,30.22,NNW,339,12.0,12.0,75,0.00,,,0.00,Wunderground v.1.15,2013-01-20 03:30:00,
2013-01-19 21:34:00,10.3,3.7,30.22,NW,309,12.0,16.0,74,0.00,,,0.00,Wunderground v.1.15,2013-01-20 03:34:00,
2013-01-19 21:36:00,10.2,3.3,30.22,North,352,12.0,18.0,73,0.00,,,0.00,Wunderground v.1.15,2013-01-20 03:36:00,
2013-01-19 21:40:00,9.9,3.0,30.22,NNW,342,13.0,17.0,73,0.00,,,0.00,Wunderground v.1.15,2013-01-20 03:40:00,
2013-01-19 21:42:00,9.8,2.9,30.23,NNW,341,14.0,17.0,73,0.00,,,0.00,Wunderground v.1.15,2013-01-20 03:42:00,
2013-01-19 21:48:00,9.6,3.0,30.23,NNW,330,12.0,17.0,74,0.00,,,0.00,Wunderground v.1.15,2013-01-20 03:48:00,
2013-01-19 21:54:00,9.6,3.3,30.23,NW,317,11.0,15.0,75,0.00,,,0.00,Wunderground v.1.15,2013-01-20 03:54:00,
2013-01-19 21:58:00,9.6,3.0,30.23,NW,309,12.0,15.0,74,0.00,,,0.00,Wunderground v.1.15,2013-01-20 03:58:00,
2013-01-19 22:00:00,9.6,3.0,30.23,NW,323,12.0,12.0,74,0.00,,,0.00,Wunderground v.1.15,2013-01-20 04:00:00,
2013-01-19 22:04:00,9.4,2.5,30.23,North,349,14.0,18.0,73,0.00,,,0.00,Wunderground v.1.15,2013-01-20 04:04:00,
2013-01-19 22:08:00,9.2,2.3,30.23,North,360,14.0,18.0,73,0.00,,,0.00,Wunderground v.1.15,2013-01-20 04:08:00,
2013-01-19 22:12:00,9.1,2.2,30.23,NNW,330,14.0,16.0,73,0.00,,,0.00,Wunderground v.1.15,2013-01-20 04:12:00,
2013-01-19 22:14:00,9.0,2.1,30.23,NW,323,14.0,16.0,73,0.00,,,0.00,Wunderground v.1.15,2013-01-20 04:14:00,
2013-01-19 22:17:00,9.0,2.1,30.24,NNW,328,14.0,16.0,73,0.00,,,0.00,Wunderground v.1.15,2013-01-20 04:17:00,
2013-01-19 22:19:00,8.9,2.0,30.24,NW,324,14.0,15.0,73,0.00,,,0.00,Wunderground v.1.15,2013-01-20 04:19:00,
2013-01-19 22:26:00,8.9,2.3,30.24,NNW,328,13.0,17.0,74,0.00,,,0.00,Wunderground v.1.15,2013-01-20 04:26:00,
2013-01-19 22:30:00,8.8,2.2,30.24,NNW,334,13.0,13.0,74,0.00,,,0.00,Wunderground v.1.15,2013-01-20 04:30:00,
2013-01-19 22:32:00,8.7,2.1,30.24,NNW,330,13.0,15.0,74,0.00,,,0.00,Wunderground v.1.15,2013-01-20 04:32:00,
2013-01-19 22:38:00,8.5,1.9,30.24,NW,321,13.0,15.0,74,0.00,,,0.00,Wunderground v.1.15,2013-01-20 04:38:00,
2013-01-19 22:44:00,8.4,1.8,30.25,North,350,13.0,15.0,74,0.00,,,0.00,Wunderground v.1.15,2013-01-20 04:44:00,
2013-01-19 22:50:00,8.3,2.0,30.25,NNW,345,13.0,13.0,75,0.00,,,0.00,Wunderground v.1.15,2013-01-20 04:50:00,
2013-01-19 22:52:00,8.2,1.9,30.25,NNW,332,13.0,15.0,75,0.00,,,0.00,Wunderground v.1.15,2013-01-20 04:52:00,
2013-01-19 22:56:00,8.0,1.4,30.25,NW,324,13.0,17.0,74,0.00,,,0.00,Wunderground v.1.15,2013-01-20 04:56:00,
2013-01-19 23:00:00,7.7,0.8,30.25,NNW,347,14.0,14.0,73,0.00,,,0.00,Wunderground v.1.15,2013-01-20 05:00:00,
2013-01-19 23:04:00,7.6,0.7,30.26,NW,321,13.0,15.0,73,0.00,,,0.00,Wunderground v.1.15,2013-01-20 05:04:00,
2013-01-19 23:08:00,7.5,0.9,30.26,NW,321,12.0,15.0,74,0.00,,,0.00,Wunderground v.1.15,2013-01-20 05:08:00,
2013-01-19 23:12:00,7.5,0.9,30.26,NNW,329,11.0,15.0,74,0.00,,,0.00,Wunderground v.1.15,2013-01-20 05:12:00,
2013-01-19 23:14:00,7.5,1.2,30.26,NNW,329,11.0,15.0,75,0.00,,,0.00,Wunderground v.1.15,2013-01-20 05:14:00,
2013-01-19 23:16:00,7.5,1.2,30.26,NW,326,11.0,15.0,75,0.00,,,0.00,Wunderground v.1.15,2013-01-20 05:16:00,
2013-01-19 23:20:00,7.4,1.4,30.26,NW,323,10.0,10.0,76,0.00,,,0.00,Wunderground v.1.15,2013-01-20 05:20:00,
2013-01-19 23:26:00,7.5,1.8,30.26,NW,325,10.0,15.0,77,0.00,,,0.00,Wunderground v.1.15,2013-01-20 05:26:00,
2013-01-19 23:30:00,7.5,1.8,30.26,NNW,330,12.0,12.0,77,0.00,,,0.00,Wunderground v.1.15,2013-01-20 05:30:00,
2013-01-19 23:32:00,7.4,1.7,30.26,NW,316,12.0,14.0,77,0.00,,,0.00,Wunderground v.1.15,2013-01-20 05:32:00,
2013-01-19 23:38:00,7.2,1.2,30.26,NNW,328,13.0,15.0,76,0.00,,,0.00,Wunderground v.1.15,2013-01-20 05:38:00,
2013-01-19 23:40:00,7.2,1.2,30.27,NW,325,13.0,15.0,76,0.00,,,0.00,Wunderground v.1.15,2013-01-20 05:40:00,
2013-01-19 23:42:00,7.1,1.1,30.26,NNW,339,13.0,15.0,76,0.00,,,0.00,Wunderground v.1.15,2013-01-20 05:42:00,
2013-01-19 23:44:00,7.1,1.1,30.27,NNW,333,13.0,15.0,76,0.00,,,0.00,Wunderground v.1.15,2013-01-20 05:44:00,
2013-01-19 23:50:00,6.9,0.9,30.27,NNW,346,12.0,15.0,76,0.00,,,0.00,Wunderground v.1.15,2013-01-20 05:50:00,
2013-01-19 23:52:00,6.8,0.8,30.27,NNW,347,12.0,15.0,76,0.00,,,0.00,Wunderground v.1.15,2013-01-20 05:52:00,
2013-01-19 23:54:00,6.7,0.7,30.27,NW,313,11.0,15.0,76,0.00,,,0.00,Wunderground v.1.15,2013-01-20 05:54:00,
2013-01-19 23:56:00,6.7,1.0,30.27,NW,311,11.0,15.0,77,0.00,,,0.00,Wunderground v.1.15,2013-01-20 05:56:00,